GFSWCAN_500_spd_336.txt.gz
Wind_Speed
64 61 58 54 51 47 44 44 44 43 42 42 40 38 36 33 29 28 26 27 26 25 23 21 21 17 16 14 12 10 8 8 9 7 6 7 7 9 10 8 7 9 12 12 11 13 13 10 12 17 17 18 19 22
68 68 66 63 60 57 53 49 47 46 43 43 44 45 43 40 37 34 31 30 27 26 26 25 26 24 19 18 15 14 11 8 12 10 11 9 7 7 10 10 6 9 10 9 8 9 8 5 8 12 14 15 17 20
73 70 71 71 69 65 60 55 53 51 49 47 44 45 47 44 42 40 39 35 32 27 29 27 22 21 23 20 18 18 13 11 13 12 13 12 11 9 8 8 7 6 8 8 10 10 8 8 10 12 14 16 17 19
76 76 75 75 74 72 67 61 59 57 51 50 50 49 46 47 46 45 44 41 39 32 32 29 24 22 23 22 21 19 18 17 14 14 14 13 14 14 12 10 9 10 11 13 16 12 10 9 11 15 16 16 18 20
69 68 69 71 73 74 72 68 64 62 58 53 52 52 50 49 47 48 49 47 41 40 35 34 28 26 27 23 22 22 20 21 18 16 16 17 17 14 12 13 12 16 13 14 13 14 12 13 14 18 19 19 19 21
71 68 66 64 62 63 63 65 65 62 60 56 54 52 51 51 51 51 52 51 46 42 42 39 36 30 29 28 28 26 24 23 22 21 19 16 20 17 15 14 18 16 16 15 15 19 19 19 18 18 21 23 21 23
70 70 65 61 59 56 55 55 59 60 58 57 56 55 55 55 53 55 56 53 51 48 46 44 41 38 36 32 31 30 29 28 27 25 21 22 23 19 15 14 20 14 12 12 12 12 13 14 15 15 18 21 20 20
62 65 67 65 60 57 54 52 51 54 56 57 55 53 53 54 54 55 58 54 53 52 52 51 46 43 42 39 35 37 38 35 30 30 28 28 28 24 12 17 22 18 15 15 15 14 14 15 14 13 15 17 15 16
56 57 59 61 62 61 57 55 52 51 51 54 55 53 52 53 54 53 58 57 56 55 55 53 45 43 46 46 44 42 41 40 39 34 32 35 31 24 18 22 27 23 20 18 16 18 19 15 16 17 14 15 14 15
51 51 52 53 55 55 56 55 54 54 53 51 53 52 49 51 54 55 54 59 60 61 60 58 52 49 48 49 48 45 43 43 43 38 41 38 31 27 27 26 27 28 27 25 22 21 24 21 16 18 15 15 15 12
46 48 48 49 49 49 50 51 52 52 53 52 51 51 50 49 50 55 56 57 60 63 63 61 55 51 51 52 50 49 50 49 48 43 44 44 32 30 35 31 30 29 30 29 27 25 24 24 20 19 17 16 15 12
39 42 46 47 47 47 47 47 48 49 51 51 51 51 49 49 48 49 52 55 59 62 62 59 52 50 51 53 56 55 55 55 53 48 45 48 31 35 37 33 33 31 31 30 29 27 25 25 21 20 19 16 15 14
30 35 40 43 45 46 46 47 48 48 47 48 49 49 49 50 51 53 52 52 52 53 53 51 44 43 47 53 58 57 59 58 56 53 49 49 34 38 39 35 33 34 33 30 30 29 28 28 23 21 21 17 16 16
23 22 26 33 37 38 41 45 45 45 47 46 46 47 49 49 50 45 41 43 44 45 45 46 41 41 45 48 53 56 59 57 58 57 53 48 43 40 43 43 41 38 37 34 33 31 30 30 28 23 21 19 18 19
21 22 23 24 25 26 29 31 31 33 36 40 43 45 45 41 41 39 39 41 40 42 42 43 44 43 40 41 48 53 56 58 59 58 57 52 47 40 42 46 45 43 40 37 36 35 32 32 30 26 22 21 21 19
22 22 23 24 27 28 28 28 29 29 30 31 33 33 31 31 33 32 34 37 39 39 41 41 35 27 36 44 48 49 52 53 53 55 53 50 45 40 39 39 38 42 47 42 39 37 37 35 32 30 27 24 24 22
24 25 25 25 26 27 28 30 31 31 30 27 25 27 27 28 30 31 33 34 35 36 37 40 40 42 40 37 45 49 50 50 50 50 48 47 43 36 37 37 39 42 52 48 42 41 40 39 35 33 30 28 30 27
24 25 27 28 28 28 28 29 30 30 29 28 28 29 31 31 31 30 30 32 34 34 37 39 40 41 43 46 46 46 46 50 54 53 52 49 44 34 35 37 39 43 47 50 47 42 43 40 36 33 33 33 33 29
27 26 26 27 28 28 29 28 29 29 28 27 26 25 27 30 31 31 30 30 30 33 35 38 43 41 36 45 53 49 50 49 51 53 56 55 56 48 40 40 40 42 45 50 52 47 44 41 37 36 38 36 33 32
29 28 28 29 30 31 31 31 31 30 28 28 29 28 27 28 30 32 34 34 35 35 32 31 34 36 40 40 54 59 51 48 57 58 57 55 54 49 45 46 42 42 42 45 51 56 51 44 41 39 38 36 34 33
26 26 27 28 29 30 31 31 32 31 30 30 31 31 30 31 30 30 32 36 37 33 32 31 35 41 43 45 44 52 62 56 50 55 57 57 53 51 47 46 48 50 40 49 50 54 55 44 42 41 39 36 33 32
22 23 23 25 26 29 29 29 29 30 31 32 34 33 31 32 32 31 31 32 33 36 36 36 35 36 38 42 43 47 48 52 57 50 48 55 59 54 46 49 52 43 41 43 52 55 53 44 44 43 41 39 37 34
19 18 17 20 21 23 22 25 26 26 24 25 28 29 28 29 29 33 34 31 31 32 35 37 39 40 37 35 34 36 41 50 53 50 60 56 55 55 60 54 53 51 36 30 24 32 39 43 44 43 42 40 37 34
15 14 15 16 16 16 18 19 19 19 20 20 22 24 26 27 29 31 27 25 27 30 32 35 39 41 42 39 36 35 35 38 45 52 54 54 58 54 54 52 53 51 44 41 41 41 42 41 40 39 38 37 36 34
14 14 12 12 13 14 16 17 18 20 21 24 24 22 21 21 23 23 19 22 24 26 28 30 32 34 37 40 40 38 38 38 38 40 43 40 52 56 46 45 49 44 57 41 35 46 45 43 41 41 41 40 37 36
13 12 14 14 13 12 13 14 17 20 23 22 21 22 23 21 18 14 22 23 22 21 20 21 23 27 30 33 34 36 37 39 39 39 39 36 35 48 54 45 44 46 47 56 43 47 49 49 48 47 44 41 38 36
12 12 15 14 13 13 15 16 15 14 15 14 13 16 17 18 19 19 18 19 19 18 18 22 25 26 27 28 30 32 34 37 38 40 38 35 34 36 42 46 42 43 40 45 44 48 46 48 49 43 42 38 36 36
11 11 11 10 11 12 12 13 14 13 12 12 11 10 11 12 12 15 17 19 21 21 21 22 20 22 22 24 25 28 32 35 36 35 36 34 32 33 36 39 47 39 43 47 45 49 47 46 46 37 33 35 38 37
13 12 11 11 11 11 12 14 14 13 12 12 11 12 12 14 14 14 15 17 18 18 18 21 14 17 16 20 21 17 21 25 28 31 31 30 29 32 30 36 47 46 40 33 48 42 45 45 40 34 33 36 38 38
10 11 11 10 11 11 10 11 11 10 11 13 14 15 15 15 15 15 16 17 18 18 18 21 25 23 17 17 19 22 20 20 21 22 21 21 28 27 27 29 29 38 56 37 31 35 38 39 36 31 29 32 31 31
7 7 8 7 6 5 5 6 8 8 9 11 12 15 19 18 16 14 13 14 14 14 15 18 21 22 19 19 18 15 14 18 22 18 14 16 19 22 26 25 22 24 36 26 19 38 38 41 41 38 36 36 37 40
5 5 5 5 4 3 3 3 4 5 5 6 6 6 7 6 5 1 3 3 3 0 2 8 15 19 20 18 19 17 14 19 21 19 14 14 13 17 25 25 24 26 24 25 29 21 43 43 40 39 38 37 39 42
9 8 8 6 6 6 6 7 8 11 13 12 10 9 9 8 5 1 1 1 2 3 2 2 6 10 13 17 20 20 13 13 19 27 24 20 17 18 15 18 19 24 29 29 32 33 35 44 47 46 45 44 45 45

GFSWCAN_500_spd_339.txt.gz
Wind_Speed
69 65 61 58 56 54 51 48 44 41 37 35 34 34 35 33 32 30 28 28 27 27 26 23 22 20 18 17 13 13 12 11 10 9 7 5 7 7 8 7 9 12 13 14 15 15 15 17 22 23 21 19 18 15
75 73 70 67 63 59 57 54 51 47 43 39 37 38 37 39 41 38 36 33 31 28 27 26 26 26 22 20 19 17 14 13 12 12 10 9 8 8 9 8 6 10 12 11 11 9 8 10 14 16 16 17 18 18
78 77 76 74 71 67 64 61 60 57 52 48 45 40 40 40 39 44 44 40 37 33 30 28 26 24 26 23 21 20 17 17 16 16 16 13 14 12 11 10 8 8 9 10 11 8 7 9 11 13 15 17 17 18
77 78 80 77 76 73 70 67 64 63 61 58 54 49 43 43 45 43 46 47 43 38 37 34 30 26 27 24 22 22 20 19 19 19 17 16 16 16 14 12 10 10 11 11 11 10 9 10 12 15 16 17 17 19
75 78 77 78 79 77 74 71 69 67 65 64 61 58 51 47 48 49 50 47 47 45 41 40 37 31 29 28 26 25 22 20 22 21 19 18 19 16 14 14 14 15 14 13 12 13 9 11 12 14 16 19 20 19
69 75 76 76 75 75 76 75 73 72 71 69 67 65 61 55 54 54 53 52 47 49 46 42 41 37 34 32 30 28 26 22 21 24 23 20 20 19 16 13 16 17 13 13 12 15 15 16 15 17 18 20 21 20
59 67 72 73 74 74 70 67 67 69 70 70 70 69 67 62 59 60 56 51 51 50 48 46 44 44 42 37 33 32 31 30 27 24 24 25 25 21 13 13 23 21 16 15 13 14 13 13 12 12 14 17 19 18
50 57 65 68 69 71 70 69 66 63 61 59 58 60 62 62 61 61 59 52 51 53 52 52 49 44 47 43 40 38 38 36 30 29 25 28 29 24 12 14 23 24 16 15 16 14 14 12 12 14 14 15 16 15
44 47 54 58 62 65 66 66 63 60 57 55 53 54 55 58 60 60 60 57 54 55 56 56 50 48 49 49 45 45 43 41 38 33 31 33 29 24 21 22 23 27 23 22 21 19 18 16 15 15 13 15 15 15
40 39 42 48 50 55 57 60 60 60 57 55 51 50 51 53 56 58 60 59 57 57 58 57 53 51 52 52 49 49 48 46 47 39 40 38 29 23 26 28 26 27 28 25 24 23 22 23 20 17 17 15 15 15
34 38 41 44 48 49 50 53 55 57 58 55 52 50 48 48 52 57 59 59 59 59 59 55 51 52 52 53 53 52 52 51 51 46 45 44 29 27 37 32 31 31 30 29 29 29 27 27 25 21 20 17 16 17
30 33 37 41 46 48 50 51 51 51 52 53 52 52 50 49 49 53 57 58 58 58 59 54 44 49 54 52 52 55 53 54 55 51 49 50 34 36 41 38 36 35 35 34 33 33 30 27 26 23 22 20 18 20
27 28 30 38 42 45 49 50 50 50 50 50 50 51 51 51 51 50 52 55 52 51 50 48 43 44 51 55 57 59 60 60 59 57 53 52 43 39 43 43 41 40 40 38 37 36 34 32 28 24 23 21 20 21
24 26 27 31 37 42 46 48 47 49 49 49 48 48 49 49 50 49 45 45 44 44 45 43 40 43 48 53 59 62 63 62 60 59 55 54 51 42 45 45 44 44 43 40 38 37 37 34 33 28 26 23 22 22
19 20 24 26 29 32 37 40 43 47 46 46 46 46 46 46 46 45 46 44 43 44 44 41 40 39 40 45 51 53 58 61 63 61 58 56 55 48 46 44 47 49 47 47 46 43 40 40 36 33 29 26 24 25
18 18 19 18 21 25 30 36 37 38 38 41 43 42 41 41 43 42 41 42 44 44 42 39 38 38 40 44 47 49 53 56 60 58 57 54 53 51 48 46 46 49 51 50 49 48 46 43 40 38 33 28 27 27
19 19 19 18 20 21 22 24 27 32 35 38 35 33 33 37 38 38 40 40 39 40 40 40 37 35 42 44 47 46 45 46 50 52 52 52 50 49 46 47 47 46 49 49 47 51 50 47 45 45 35 31 30 31
20 19 18 18 21 21 23 24 23 23 24 25 24 26 27 28 27 27 28 30 31 35 36 38 41 41 41 41 42 43 41 52 54 53 48 47 45 45 42 41 45 45 46 48 49 50 51 50 46 44 41 37 37 36
20 19 18 19 19 20 21 22 23 23 22 22 24 26 28 28 29 30 31 32 33 35 37 38 40 43 43 45 42 43 44 35 39 44 47 46 48 46 46 37 39 41 45 46 47 49 49 48 46 42 48 43 41 40
20 19 19 20 21 22 23 23 23 24 24 20 22 27 30 30 31 32 33 33 34 34 34 34 34 33 37 40 44 50 55 56 54 52 51 51 45 49 53 49 40 40 43 44 44 45 45 46 42 42 43 47 45 44
22 22 22 22 23 23 23 24 24 22 21 21 23 26 26 27 29 30 32 33 34 33 33 34 35 36 37 40 43 45 45 49 62 60 58 56 55 54 54 51 48 49 47 46 44 46 44 43 44 43 44 46 48 45
23 23 21 22 23 23 22 24 24 25 25 26 26 26 26 27 28 27 27 27 28 30 31 33 35 38 38 38 39 42 45 48 50 58 65 61 54 58 59 56 52 52 52 49 51 49 47 45 47 44 46 49 49 48
18 19 20 22 23 23 23 24 24 25 25 26 28 27 26 27 28 28 28 28 27 28 33 36 40 41 41 40 39 39 40 43 48 51 53 55 63 62 56 58 57 52 50 44 49 48 49 50 52 48 53 60 55 51
16 16 16 17 18 18 21 22 23 23 24 26 26 26 27 30 32 33 29 27 29 31 31 32 33 36 38 39 40 40 40 39 39 41 48 52 53 54 59 65 58 51 52 53 49 51 49 43 44 48 54 56 51 47
13 13 12 12 12 13 15 19 20 21 22 24 24 24 26 28 28 26 23 27 28 27 28 28 29 31 33 37 39 40 41 41 41 38 36 39 43 46 47 49 54 59 53 50 47 45 40 38 44 39 50 49 48 46
11 12 11 11 11 11 12 15 18 20 21 19 19 20 20 19 17 16 21 22 23 23 22 23 25 28 30 33 36 38 38 40 41 41 41 39 37 35 36 39 45 52 54 53 50 52 52 52 40 39 52 50 49 50
13 15 14 14 12 11 11 13 15 16 17 19 17 16 16 15 15 16 17 17 19 22 24 24 25 25 26 26 27 31 33 34 35 36 38 38 38 37 35 35 35 38 41 48 50 47 44 56 57 52 51 52 51 50
14 16 15 13 12 12 13 12 12 10 9 10 11 12 10 12 14 14 16 19 20 20 22 24 26 26 26 27 30 30 28 28 29 30 32 34 34 33 32 33 32 31 29 35 46 45 47 57 51 55 47 50 51 53
12 11 10 9 9 9 10 11 13 13 13 12 11 10 10 11 12 14 15 16 19 20 21 21 24 26 24 21 21 20 22 21 23 25 30 30 29 29 29 28 25 28 28 25 44 48 45 52 56 57 48 49 51 49
8 8 7 8 8 10 10 11 12 13 13 13 13 13 12 13 12 12 12 14 16 16 17 17 17 18 18 20 19 14 15 16 15 15 14 14 15 19 22 25 25 23 25 26 29 47 41 42 47 49 48 45 52 51
7 6 6 6 6 6 6 7 8 9 10 12 13 14 16 16 16 13 14 13 12 13 13 13 15 18 20 25 23 18 17 18 19 20 20 21 17 18 11 12 18 17 23 25 26 33 30 31 41 45 47 43 40 39
6 7 7 6 6 5 6 6 7 7 7 7 7 7 6 5 4 2 4 3 4 6 6 6 7 9 15 20 23 22 20 19 16 11 16 17 16 20 17 18 20 18 19 20 21 18 22 38 44 41 36 38 39 35
7 7 7 6 5 6 6 7 8 11 11 8 8 10 10 8 5 3 2 4 3 3 4 6 8 9 10 12 14 18 19 19 16 18 18 20 17 19 24 18 18 18 18 14 23 27 27 33 37 35 35 35 39 40

GFSWCAN_500_spd_342.txt.gz
Wind_Speed
70 68 68 65 63 60 56 54 52 48 45 41 38 36 34 32 30 28 27 26 23 22 23 23 22 21 18 16 14 13 12 11 11 11 9 8 10 10 10 10 11 10 12 13 14 15 15 18 18 19 19 19 17 15
72 70 71 70 70 68 64 60 58 56 52 50 47 43 40 37 34 32 33 33 32 29 25 23 23 24 23 20 19 17 15 14 13 13 13 12 11 11 11 11 9 9 13 13 13 13 12 14 15 15 16 15 13 11
71 73 72 72 73 74 72 68 65 62 58 56 53 51 47 42 38 35 32 31 36 35 33 31 28 23 23 23 22 22 19 17 17 17 16 16 15 14 12 10 8 8 11 13 13 12 13 14 14 15 14 12 12 13
67 70 71 73 73 75 75 74 71 68 64 60 58 56 53 48 45 42 38 34 33 32 38 38 35 30 26 25 23 22 20 19 19 20 19 16 17 16 15 12 11 11 12 12 13 13 11 12 14 15 17 17 17 15
54 60 65 70 73 75 76 77 75 74 71 67 63 60 58 56 54 50 47 41 36 36 34 37 40 38 33 30 27 26 25 21 19 21 22 19 17 17 16 15 13 16 15 14 13 12 12 14 15 15 16 16 17 18
50 49 53 60 68 72 75 75 78 76 74 72 70 67 63 60 59 59 56 51 45 40 38 38 39 43 41 38 35 32 29 26 23 20 23 23 21 19 15 13 16 20 19 17 16 17 15 15 14 16 17 18 18 18
47 48 48 48 54 64 70 74 75 75 76 74 72 70 68 65 63 62 60 54 51 50 46 43 43 44 47 43 39 37 35 31 29 25 22 24 26 21 13 12 25 23 17 15 15 17 19 17 16 14 13 14 14 15
40 44 47 46 45 50 61 69 72 74 73 73 73 72 71 69 68 65 64 60 57 57 53 52 49 45 47 46 43 41 41 38 34 30 26 26 25 23 13 19 23 25 22 17 18 19 18 15 13 12 12 12 13 15
34 37 41 44 46 44 49 59 67 71 73 71 69 69 70 71 70 70 70 68 67 66 64 59 53 49 49 48 47 45 45 45 42 37 31 31 26 18 21 25 26 28 27 23 20 21 19 17 15 13 12 14 15 16
34 32 34 39 42 43 45 50 58 65 69 71 69 66 62 62 63 63 64 64 66 69 69 66 56 53 51 51 50 49 48 48 48 43 41 37 26 27 29 29 30 29 29 27 24 23 23 21 21 19 17 17 18 17
34 33 32 34 37 37 40 46 49 55 62 66 67 66 64 61 58 57 58 59 61 65 66 62 56 53 53 51 50 52 53 53 53 49 46 46 35 33 34 35 33 31 31 30 29 28 26 27 28 26 24 22 19 19
33 32 30 31 34 33 36 38 44 45 51 56 59 62 61 59 59 57 58 58 59 61 63 60 52 50 53 52 52 53 55 56 57 54 51 52 40 40 39 39 37 35 33 33 32 32 30 27 27 28 26 24 22 20
31 30 28 28 28 32 33 36 41 43 47 50 54 58 60 61 59 58 59 57 55 55 55 52 41 48 52 51 53 53 56 60 61 59 56 54 45 41 43 43 42 39 37 37 37 35 34 32 31 28 28 27 25 23
27 25 25 24 24 25 28 33 38 38 45 48 51 55 57 58 58 54 54 50 47 46 44 44 41 44 49 50 53 55 57 59 62 62 58 55 52 43 43 44 44 45 43 40 39 39 38 36 35 33 27 28 27 25
22 21 20 19 21 22 22 25 30 38 44 42 48 51 52 54 55 54 53 51 47 46 42 37 41 43 46 50 55 56 57 59 62 63 61 56 54 50 46 44 43 46 48 47 44 43 42 41 39 36 34 28 29 29
19 18 16 18 20 20 18 23 26 32 39 40 43 45 48 50 52 53 52 52 48 44 42 39 38 41 43 47 51 57 59 60 59 58 58 58 57 56 50 49 46 48 48 50 50 50 46 45 42 39 40 34 29 31
19 17 17 17 18 20 21 23 25 26 30 35 40 40 41 43 45 48 48 47 47 39 34 33 34 36 42 45 47 47 50 53 54 54 53 52 51 51 50 49 49 48 49 50 52 53 51 48 47 44 40 35 37 34
18 17 16 17 17 18 21 22 24 28 29 29 30 34 37 35 37 38 40 41 41 40 43 44 44 46 45 42 44 47 44 43 45 46 46 47 47 47 46 45 46 47 48 49 50 51 52 51 47 47 45 41 42 41
18 16 16 16 17 19 21 22 23 23 23 24 29 29 30 27 21 30 33 34 37 38 39 44 46 53 53 50 49 46 49 48 47 48 46 43 43 40 38 38 38 41 45 46 44 44 46 48 49 48 46 45 45 43
17 16 16 17 18 18 20 23 23 22 20 18 20 21 23 29 30 28 29 31 33 37 40 43 44 43 48 52 50 49 48 48 48 50 50 48 45 43 43 42 41 41 41 42 43 43 42 44 47 48 45 45 45 43
18 17 15 14 14 15 16 16 17 16 15 18 21 24 25 26 27 27 28 29 31 32 32 33 31 32 36 41 48 49 47 45 43 45 49 43 41 42 41 40 40 38 39 42 43 40 40 41 43 45 42 39 41 37
20 18 16 15 16 15 14 14 15 14 14 16 18 19 21 23 25 25 26 26 26 26 26 27 30 33 34 36 39 42 43 45 48 49 50 52 52 48 46 47 48 45 41 46 46 43 44 42 42 41 41 38 39 41
19 19 19 20 18 18 18 18 18 17 17 18 19 19 21 22 23 24 26 26 27 28 31 32 34 36 36 35 34 34 35 36 38 42 44 47 54 59 62 62 61 57 52 48 51 48 44 48 48 45 43 41 40 42
16 16 17 17 17 16 18 17 18 18 19 21 20 21 23 24 25 24 25 27 27 26 27 28 29 30 30 32 34 36 37 37 38 38 40 42 45 49 53 54 55 55 56 54 51 47 50 47 47 53 54 49 46 47
12 12 12 12 12 12 14 14 16 16 20 20 19 20 22 23 24 23 23 24 24 24 24 26 27 28 29 30 30 32 34 36 38 40 41 42 42 43 45 47 49 52 53 51 51 52 52 49 44 47 50 49 48 50
12 11 10 8 8 9 9 10 12 14 15 14 14 16 18 18 18 18 20 21 23 25 26 26 27 28 29 30 31 32 32 33 35 37 40 40 42 43 44 43 42 42 45 45 46 48 49 55 50 42 48 50 49 49
10 9 8 7 7 6 5 7 9 13 14 12 12 9 10 11 13 15 16 18 19 20 21 23 25 26 28 29 30 32 33 34 35 36 36 37 38 39 41 42 43 41 38 36 35 37 42 48 50 48 42 46 44 46
10 10 10 8 8 11 7 7 10 12 13 12 10 9 9 11 12 11 13 15 16 17 18 20 22 23 24 25 26 26 27 27 27 27 28 31 32 32 33 35 38 39 39 37 34 32 31 34 43 46 45 44 47 43
12 10 7 6 5 5 6 7 7 8 9 9 8 8 8 9 10 11 11 12 14 16 17 19 19 20 22 23 25 25 26 26 26 26 27 28 28 27 28 29 30 32 34 35 34 31 27 24 29 36 40 42 42 38
7 6 5 4 4 4 4 5 7 7 6 7 8 8 8 8 8 8 8 10 13 13 14 16 18 19 21 19 20 21 21 18 17 16 15 14 14 17 21 24 26 29 30 31 30 30 28 25 30 34 38 40 40 46
7 7 7 6 6 5 5 7 8 9 9 10 10 10 10 10 11 11 12 12 11 13 15 16 17 18 19 19 19 18 19 18 15 14 14 15 17 18 16 16 18 23 27 28 27 31 33 27 26 30 35 38 38 35
5 5 6 7 6 4 3 4 5 6 7 8 9 8 8 6 5 5 5 4 4 5 6 6 6 5 7 9 13 17 20 21 22 18 16 18 17 17 21 19 17 16 15 20 25 27 28 24 19 24 29 32 31 34
4 4 4 4 4 5 4 5 8 9 7 6 7 9 9 8 7 5 3 2 2 4 4 3 2 3 4 6 6 9 14 18 19 17 17 18 16 13 15 22 20 18 18 18 17 18 15 17 22 24 21 27 35 34

GFSWCAN_500_spd_345.txt.gz
Wind_Speed
71 70 67 65 65 64 63 59 57 56 53 50 46 43 39 35 32 29 27 25 23 22 21 21 20 18 17 15 14 13 11 9 8 8 9 9 11 14 14 14 14 13 13 15 16 16 16 15 17 22 22 20 17 15
71 71 72 71 68 67 67 67 63 61 59 57 53 50 47 43 40 36 33 31 29 26 24 22 20 18 19 18 18 16 15 14 12 11 10 10 11 12 15 13 12 10 11 13 14 15 15 15 15 16 17 16 15 13
64 66 70 72 72 71 69 69 69 67 64 62 60 56 54 50 46 43 40 37 36 32 31 28 27 22 20 18 17 19 17 16 17 16 13 12 12 13 13 14 14 12 11 11 12 13 14 15 14 14 12 12 11 10
54 57 57 59 68 71 73 72 70 72 71 68 64 62 58 56 53 49 45 41 38 34 33 31 29 30 26 24 21 20 17 16 17 18 16 15 14 14 14 14 12 11 11 11 12 13 13 14 13 12 12 11 11 11
48 51 53 53 53 61 69 72 74 72 75 74 71 67 64 61 58 56 53 48 43 39 32 31 30 27 28 29 28 25 22 19 17 17 17 17 17 15 15 14 14 16 15 14 13 13 14 14 13 14 15 14 13 13
48 47 47 48 48 49 57 64 71 75 74 76 75 74 70 66 62 60 58 55 50 46 40 35 33 31 30 28 31 31 29 25 21 20 20 18 19 18 15 13 19 19 19 17 15 15 16 17 16 17 16 14 15 17
44 43 43 43 44 46 48 53 59 69 74 75 76 76 74 72 68 64 62 57 55 54 50 45 41 39 34 32 31 31 34 32 29 26 23 22 21 18 16 16 25 22 18 17 17 19 20 18 16 16 17 16 14 12
41 39 39 38 39 41 45 47 51 58 66 73 75 76 77 73 73 69 66 62 59 59 57 55 51 42 40 36 34 34 35 37 36 32 28 27 25 20 18 25 25 23 21 18 17 19 21 18 16 15 14 13 12 12
39 38 36 34 33 36 40 43 45 48 55 62 70 75 75 77 74 72 71 66 64 63 62 60 54 48 45 44 41 39 39 42 40 39 35 34 29 24 21 25 27 25 23 20 19 18 20 20 16 15 15 15 14 14
37 37 35 33 32 30 34 39 43 44 45 51 61 69 73 73 72 73 71 69 69 68 69 66 58 54 51 49 48 46 45 47 47 43 43 41 35 30 27 26 27 28 27 25 22 20 19 20 21 20 18 18 17 17
33 36 35 32 30 29 28 34 39 42 43 42 49 60 67 68 68 68 70 72 71 72 75 71 61 57 57 57 55 54 54 53 53 49 46 46 40 37 34 32 31 29 27 27 28 27 25 23 23 24 22 21 21 22
30 32 33 33 30 31 28 29 34 38 40 41 43 51 60 64 64 65 66 68 73 76 80 72 60 58 61 62 62 62 61 60 59 54 52 51 41 39 39 39 37 34 31 30 30 29 28 28 27 25 25 24 23 24
28 29 31 31 30 29 28 28 31 33 32 34 39 46 53 59 61 66 67 68 65 63 62 61 51 50 54 57 59 60 63 63 61 59 56 54 45 42 41 42 42 41 38 35 33 33 32 30 28 27 26 25 24 22
25 26 27 27 27 26 26 26 27 31 29 31 36 43 47 53 58 63 65 64 63 59 56 51 42 43 46 52 56 58 61 63 62 61 56 52 48 45 44 45 44 43 42 41 39 37 36 34 33 32 30 29 26 26
23 23 24 23 22 22 22 22 23 26 29 29 35 38 41 45 51 56 59 60 56 55 52 48 41 41 43 48 55 59 62 63 64 61 57 52 51 45 45 46 44 44 44 44 43 42 41 40 38 36 33 31 28 27
21 20 20 18 17 17 18 17 18 21 23 27 29 32 38 43 46 52 56 56 53 54 49 44 37 37 44 49 55 59 62 63 60 58 54 51 48 47 43 45 46 44 44 45 45 44 44 44 43 41 39 35 31 31
19 18 17 16 15 14 14 16 16 17 20 22 25 29 30 34 39 47 53 55 54 47 45 47 47 41 43 46 52 56 57 55 55 54 52 50 47 47 43 41 48 48 47 47 47 49 49 47 46 43 42 40 36 34
17 18 17 16 15 15 15 18 19 19 21 19 22 24 27 28 27 35 43 46 48 45 42 38 41 50 41 44 44 50 51 51 51 50 49 49 48 47 46 42 41 46 48 50 50 50 49 50 49 47 44 42 39 39
17 16 15 15 14 15 16 17 19 19 19 18 17 20 24 25 22 24 36 40 40 50 45 44 41 52 52 51 48 46 40 42 45 44 43 42 41 40 40 40 40 41 43 46 48 48 48 48 49 50 48 44 42 42
16 14 14 13 13 12 13 14 17 18 18 17 17 18 22 28 31 23 27 25 28 41 51 48 45 44 49 46 47 48 48 50 45 41 41 41 39 36 35 34 32 33 37 41 43 43 43 43 43 45 45 44 42 43
15 14 13 12 12 12 11 11 13 16 17 16 18 21 24 29 29 23 26 38 38 41 51 50 50 46 50 53 53 48 49 50 53 48 47 45 44 42 41 40 37 35 35 38 39 39 37 37 37 38 40 39 39 41
15 13 12 11 11 10 9 9 10 11 13 15 17 17 20 26 34 32 31 29 32 34 39 47 48 50 53 54 54 55 53 49 53 52 47 47 49 48 47 45 43 40 39 40 40 40 39 38 40 39 37 38 39 38
14 13 13 13 12 10 11 11 11 11 12 14 16 18 19 20 24 28 28 23 22 25 26 26 28 37 42 46 48 51 49 47 49 52 49 45 45 47 46 44 41 44 40 39 42 42 38 38 39 40 39 37 36 38
14 14 14 12 12 11 11 12 12 13 13 13 14 16 18 21 22 23 23 23 21 21 22 24 25 26 26 27 28 29 32 35 35 38 41 43 46 48 48 49 49 49 48 47 46 46 46 47 47 46 48 47 43 41
11 10 10 9 9 9 9 9 10 11 12 13 14 15 15 16 17 17 17 18 19 21 22 23 25 26 25 26 27 28 28 30 31 33 36 37 38 40 43 45 45 46 47 48 50 55 57 52 50 50 52 50 49 47
10 8 7 6 5 6 6 7 9 9 9 9 10 11 13 14 15 17 18 18 18 19 20 21 22 22 23 24 25 25 27 28 30 32 35 36 37 39 41 43 43 45 46 44 45 46 47 46 46 46 46 50 51 50
8 7 6 5 5 5 4 4 5 8 9 8 8 8 10 12 15 16 17 18 19 21 22 23 25 25 25 24 25 27 29 30 30 31 32 33 34 35 35 38 41 43 44 44 45 45 44 43 43 45 48 48 49 52
9 9 11 15 13 11 9 7 3 7 9 9 7 7 8 9 10 10 15 17 17 18 19 20 21 23 24 25 25 26 28 29 30 31 32 34 35 37 37 38 39 40 40 41 41 41 43 43 39 36 39 46 49 49
10 10 10 9 8 7 4 5 6 8 8 8 9 9 8 9 10 10 10 12 13 14 15 15 17 19 20 21 22 23 24 25 26 27 28 29 30 31 31 32 33 34 37 39 41 41 41 41 39 36 34 37 41 47
7 6 4 3 2 3 4 6 7 6 6 7 7 7 7 7 8 9 9 10 12 12 13 15 16 18 20 21 21 23 24 25 26 27 26 25 26 27 28 28 29 29 30 31 32 33 35 36 36 35 34 34 35 37
3 3 3 4 5 5 5 6 6 5 4 5 5 5 5 5 6 7 8 10 10 11 13 14 16 17 18 18 18 17 19 21 22 20 19 18 17 17 17 18 17 19 23 26 29 29 31 32 32 32 33 37 36 35
4 4 3 3 4 4 3 2 1 1 2 3 4 5 6 7 7 8 8 7 6 6 6 6 7 8 9 10 13 15 18 20 20 22 21 18 16 16 17 18 21 22 21 21 21 26 30 30 29 32 35 35 38 29
4 4 4 4 4 5 6 8 10 10 7 6 6 7 8 8 7 6 5 3 2 1 2 2 2 2 3 4 6 8 11 14 18 21 23 23 22 20 16 14 15 19 22 20 14 9 15 20 22 24 26 29 32 31